564  
ASUS44 KHUN 240510  
RWRHUN  
 
WEATHER ROUNDUP FOR THE TENNESSEE VALLEY  
NATIONAL WEATHER SERVICE HUNTSVILLE AL  
1200 AM CDT SUN JUN 24 2018  
 
ALZ001>004-240600-  
NORTHWEST ALABAMA  
 
CITY SKY/WX TMP DP RH WIND PRES REMARKS
 
COURTLAND HCN N/A 75 N/A N/A SW5 N/A  
RUSSELLVILLE N/A 72 N/A N/A MISG N/A  
SHOALS AIRPORT FAIR 77 71 82 SW6 29.91F  
SHOALS TVA RES N/A 75 N/A N/A MISG N/A  

 
 
ALZ005>007-016-240600-  
NORTH CENTRAL ALABAMA  
 
CITY SKY/WX TMP DP RH WIND PRES REMARKS
 
CULLMAN AG STN N/A 75 N/A N/A CALM N/A  
DECATUR AP FAIR 73 70 90 S3 29.91F  
HUNTSVILLE AP FAIR 76 75 97 SE5 29.91F  
MERIDIANVILLE PTCLDY 76 74 93 MISG 29.92S  
REDSTONE ARSN MOCLDY 73 72 96 S5 29.91F  
VINEMONT AP FAIR 74 72 95 S6 29.96F  

 
 
ALZ008>010-240600-  
NORTHEAST ALABAMA  
 
CITY SKY/WX TMP DP RH WIND PRES REMARKS
 
ALBERTVILLE FAIR 73 73 100 S6 29.95F  
FORT PAYNE FAIR 70 66 88 CALM 29.96S  
SCOTTSBORO AP FAIR 73 73 100 CALM 29.94S  
SCOTTSBORO HCN N/A 72 N/A N/A MISG N/A  
VALLEY HEAD N/A 70 N/A N/A MISG N/A  

 
 
TNZ076-096-097-240600-  
SOUTHEASTERN MIDDLE TENNESSEE  
 
CITY SKY/WX TMP DP RH WIND PRES REMARKS
 
TULLAHOMA PTCLDY 73 72 94 S6 29.92F  
WINCHESTER MOCLDY 77 73 88 S6 29.92F  

 
   
..SURROUNDING SITES
 
 
 
CITY SKY/WX TMP DP RH WIND PRES REMARKS
 
ATLANTA FAIR 75 71 87 S6 29.97F  
ANNISTON FAIR 74 72 93 CALM 29.96R  
BIRMINGHAM FAIR 80 71 74 CALM 29.97R  
CHATTANOOGA FAIR 73 68 84 CALM 29.95S  
CORINTH FAIR 79 75 89 S6 29.88F  
DALTON N/A 70 70 100 CALM 29.97F  
GADSDEN FAIR 72 72 100 MISG 29.95F  
GOLDEN TRNGL FAIR 77 74 90 S7 29.91S  
HALEYVILLE FAIR 71 71 100 S3 29.95F  
JACKSON TN FAIR 75 73 93 SW5 29.86S  
MEMPHIS FAIR 82 78 88 S6 29.86S HX 91  
NASHVILLE PTCLDY 78 72 81 SW8 29.89R  
OXFORD MS FAIR 79 75 89 VRB5 29.90S  
ROME FAIR 71 71 100 CALM 29.95S  
SAVANNAH PTCLDY 79 77 94 S7 29.87F  
SELMER CLEAR 79 77 94 SW6 29.88S  
TUPELO FAIR 79 76 90 SE7 29.89S  
TUSCALOOSA FAIR 79 74 84 CALM 29.92S  

 
   
..GULF COAST WEATHER
 
 
 
CITY SKY/WX TMP DP RH WIND PRES REMARKS
 
GULFPORT FAIR 85 76 74 SW8 29.96R HX 94  
PASCAGOULA FAIR 83 77 82 S7 29.97S HX 92  
MOBILE FAIR 81 76 84 S9 29.99R  
GULF SHORES FAIR 81 76 85 S8G20 29.99S  
PENSACOLA FAIR 82 76 81 SW10 29.99  
DESTIN FAIR 83 77 82 VRB3 29.99S HX 92  
PANAMA CITY FAIR 82 77 86 SW7 30.00S  
APPALACHICOLA FAIR 83 79 88 SW8 30.00S HX 94  

 
 
 
 
CLICK HERE TO GO TO PREVIOUS BULLETINS.

The Nexlab AL Page
The Nexlab TN Page Main Text Page